FW4702 Weather Reports


Display with metric or nautical units.
time (UTC)temp
F
wind
direction
speed
MPH
gust
MPH
rain 1hr
in
rain 24hr
in
rain mn
in
humidity
%
barometer
mb
20260502211601 65 306 2.0 11.0 0.00 0.00 0.00 37 1015.6
20260502211055 66 300 1.0 7.0 0.00 0.00 0.00 37 1015.6
20260502210555 66 325 3.0 7.0 0.00 0.00 0.00 37 1015.6
20260502205555 65 298 1.0 12.0 0.00 0.00 0.00 39 1015.5
20260502205055 65 318 4.0 12.0 0.00 0.00 0.00 37 1015.7
20260502204609 65 285 4.0 10.0 0.00 0.00 0.00 36 1015.7
20260502204055 65 322 2.0 8.0 0.00 0.00 0.00 39 1015.8
20260502203556 64 0 0.0 9.0 0.00 0.00 0.00 39 1015.8
20260502203112 65 298 2.0 9.0 0.00 0.00 0.00 37 1015.8
20260502202555 66 319 2.0 11.0 0.00 0.00 0.00 37 1015.7
20260502202058 66 313 3.0 11.0 0.00 0.00 0.00 37 1015.7
20260502201604 65 321 2.0 11.0 0.00 0.00 0.00 38 1015.9
20260502201055 66 0 2.0 10.0 0.00 0.00 0.00 37 1015.9
20260502200559 66 267 4.0 9.0 0.00 0.00 0.00 35 1016.0
20260502200057 67 342 2.0 7.0 0.00 0.00 0.00 36 1016.0
20260502195555 66 292 1.0 7.0 0.00 0.00 0.00 38 1015.9
20260502195055 66 262 2.0 9.0 0.00 0.00 0.00 37 1016.0
20260502194559 66 5 2.0 9.0 0.00 0.00 0.00 38 1016.0
20260502194057 65 305 3.0 11.0 0.00 0.00 0.00 36 1016.1
20260502193555 65 360 3.0 11.0 0.00 0.00 0.00 36 1016.1
20260502193054 66 317 2.0 10.0 0.00 0.00 0.00 38 1016.2
20260502192559 65 0 2.0 11.0 0.00 0.00 0.00 36 1016.2
20260502192055 66 352 4.0 11.0 0.00 0.00 0.00 36 1016.2
20260502191611 67 264 1.0 10.0 0.00 0.00 0.00 36 1016.2
20260502191056 66 57 1.0 5.0 0.00 0.00 0.00 40 1016.3
20260502190556 65 305 1.0 6.0 0.00 0.00 0.00 39 1016.3
20260502190110 64 298 1.0 6.0 0.00 0.00 0.00 39 1016.3
20260502185555 65 0 2.0 9.0 0.00 0.00 0.00 39 1016.3
20260502185055 65 41 2.0 9.0 0.00 0.00 0.00 38 1016.2
20260502184555 65 307 3.0 9.0 0.00 0.00 0.00 36 1016.3
20260502184055 66 9 3.0 10.0 0.00 0.00 0.00 37 1016.4
20260502183555 66 316 3.0 10.0 0.00 0.00 0.00 36 1016.4
20260502183059 65 0 1.0 7.0 0.00 0.00 0.00 39 1016.3
20260502182558 66 30 2.0 10.0 0.00 0.00 0.00 36 1016.4
20260502182056 65 0 3.0 10.0 0.00 0.00 0.00 38 1016.3
20260502181557 65 290 2.0 7.0 0.00 0.00 0.00 38 1016.3
20260502181055 66 0 1.0 12.0 0.00 0.00 0.00 38 1016.4
20260502180556 65 335 2.0 12.0 0.00 0.00 0.00 41 1016.4
20260502180113 65 295 1.0 11.0 0.00 0.00 0.00 38 1016.7
20260502164056 64 30 1.0 8.0 0.00 0.00 0.00 45 1017.4
20260502163600 63 340 1.0 8.0 0.00 0.00 0.00 43 1017.3
20260502163109 62 27 3.0 10.0 0.00 0.00 0.00 44 1017.5
20260502162556 62 333 3.0 10.0 0.00 0.00 0.00 42 1017.4
20260502162055 62 326 2.0 11.0 0.00 0.00 0.00 42 1017.5
20260502161557 62 323 3.0 11.0 0.00 0.00 0.00 43 1017.5
20260502161054 62 22 4.0 10.0 0.00 0.00 0.00 42 1017.6
20260502160555 62 49 1.0 7.0 0.00 0.00 0.00 45 1017.5
20260502152058 58 334 3.0 7.0 0.00 0.00 0.00 51 1017.5
20260502151601 58 41 1.0 4.0 0.00 0.00 0.00 53 1017.4
20260502151058 58 275 1.0 8.0 0.00 0.00 0.00 53 1017.3
20260502150558 58 89 2.0 8.0 0.00 0.00 0.00 52 1017.3
20260502130600 54 30 2.0 5.0 0.00 0.00 0.00 64 1016.7
20260502130107 54 40 1.0 4.0 0.00 0.00 0.00 66 1016.8
20260502123558 52 315 1.0 4.0 0.00 0.00 0.00 68 1016.7
20260502123104 52 0 0.0 3.0 0.00 0.00 0.00 67 1016.7
20260502122555 52 0 0.0 3.0 0.00 0.00 0.00 69 1016.5
20260502122055 52 0 0.0 5.0 0.00 0.00 0.00 69 1016.5
20260502121559 51 352 1.0 5.0 0.00 0.00 0.00 69 1016.6
20260502121055 51 0 2.0 4.0 0.00 0.00 0.00 69 1016.5
20260502120555 50 306 1.0 3.0 0.00 0.00 0.00 70 1016.3
20260502115559 50 299 0.0 3.0 0.00 0.00 0.00 70 1016.2
20260502115055 50 299 0.0 2.0 0.00 0.00 0.00 70 1016.0
20260502114557 50 0 0.0 2.0 0.00 0.00 0.00 69 1016.1
20260502114056 50 321 0.0 3.0 0.00 0.00 0.00 69 1016.0
20260502113559 50 302 0.0 3.0 0.00 0.00 0.00 69 1016.1
20260502113056 51 0 0.0 3.0 0.00 0.00 0.00 69 1015.9
20260502112556 51 333 0.0 3.0 0.00 0.00 0.00 68 1016.0
20260502112055 51 0 1.0 3.0 0.00 0.00 0.00 68 1015.9
20260502111556 51 0 0.0 3.0 0.00 0.00 0.00 68 1015.9
20260502111058 51 308 0.0 3.0 0.00 0.00 0.00 68 1015.7
20260502110557 50 302 0.0 2.0 0.00 0.00 0.00 68 1015.7
20260502110104 50 0 0.0 1.0 0.00 0.00 0.00 70 1015.7
20260502105555 50 0 0.0 1.0 0.00 0.00 0.00 71 1015.7
20260502105059 51 0 0.0 2.0 0.00 0.00 0.00 72 1015.5
20260502104555 51 0 0.0 2.0 0.00 0.00 0.00 65 1015.5
20260502104055 51 0 0.0 2.0 0.00 0.00 0.00 66 1015.4
20260502103555 51 0 0.0 2.0 0.00 0.00 0.00 65 1015.3
20260502103055 51 0 0.0 2.0 0.00 0.00 0.00 65 1015.3
20260502102555 52 0 0.0 2.0 0.00 0.00 0.00 65 1015.3
20260502102055 52 0 0.0 2.0 0.00 0.00 0.00 63 1015.4
20260502101554 52 0 0.0 2.0 0.00 0.00 0.00 62 1015.5
20260502101057 52 0 0.0 2.0 0.00 0.00 0.00 62 1015.3
20260502100555 52 0 0.0 2.0 0.00 0.00 0.00 62 1015.1
20260502091056 53 10 0.0 4.0 0.00 0.00 0.00 58 1014.8
20260502090557 53 315 0.0 3.0 0.00 0.00 0.00 58 1014.7
20260502071057 55 0 1.0 4.0 0.00 0.00 0.00 55 1015.5
20260502070557 55 0 1.0 4.0 0.00 0.00 0.00 55 1015.5
20260502070059 55 0 0.0 4.0 0.00 0.00 0.00 55 1015.9
20260502065558 55 306 1.0 4.0 0.00 0.00 0.00 55 1016.1
20260502065057 55 0 1.0 4.0 0.00 0.00 0.00 55 1015.9
20260502064600 55 0 0.0 8.0 0.00 0.00 0.00 54 1015.8
20260502064057 55 0 1.0 8.0 0.00 0.00 0.00 54 1015.9
20260502063559 55 58 0.0 4.0 0.00 0.00 0.00 54 1015.9
20260502063100 55 0 1.0 5.0 0.00 0.00 0.00 54 1015.9
20260502062557 56 277 2.0 5.0 0.00 0.00 0.00 53 1015.8
20260502062056 56 285 1.0 5.0 0.00 0.00 0.00 54 1015.9
20260502061554 56 352 1.0 4.0 0.00 0.00 0.00 54 1016.1
20260502061056 56 306 1.0 4.0 0.00 0.00 0.00 53 1016.3
20260502060557 56 330 0.0 4.0 0.00 0.00 0.00 52 1016.2
20260502055600 56 0 1.0 4.0 0.00 0.00 0.00 53 1016.0
20260502055058 56 0 1.0 4.0 0.00 0.00 0.00 52 1016.0
20260502054558 56 0 1.0 5.0 0.00 0.00 0.00 51 1015.8
20260502054057 56 290 2.0 5.0 0.00 0.00 0.00 51 1015.7
20260502053557 56 0 1.0 5.0 0.00 0.00 0.00 52 1015.8
20260502053102 56 0 1.0 5.0 0.00 0.00 0.00 51 1015.9
20260502052600 56 327 1.0 6.0 0.00 0.00 0.00 51 1015.9
20260502052058 56 86 1.0 6.0 0.00 0.00 0.00 51 1015.7
20260502051558 56 352 1.0 3.0 0.00 0.00 0.00 50 1015.8
20260502051058 56 335 0.0 4.0 0.00 0.00 0.00 50 1015.8
20260502050559 57 321 1.0 7.0 0.00 0.00 0.00 51 1015.7
20260502050056 57 0 1.0 7.0 0.00 0.00 0.00 50 1015.7
20260502045559 57 0 1.0 6.0 0.00 0.00 0.00 50 1015.6
20260502045057 57 331 1.0 5.0 0.00 0.00 0.00 50 1015.4
20260502044557 57 0 1.0 5.0 0.00 0.00 0.00 50 1015.4
20260502044057 57 57 0.0 5.0 0.00 0.00 0.00 52 1015.3
20260502043600 57 46 0.0 5.0 0.00 0.00 0.00 51 1015.3
20260502043107 57 306 0.0 4.0 0.00 0.00 0.00 51 1015.4
20260502042558 57 0 1.0 6.0 0.00 0.00 0.00 52 1015.3
20260502042057 57 33 1.0 6.0 0.00 0.00 0.00 52 1015.3
20260502041556 57 0 1.0 5.0 0.00 0.00 0.00 53 1015.4
20260502041057 57 15 0.0 4.0 0.00 0.00 0.00 53 1015.3
20260502040600 57 0 1.0 4.0 0.00 0.00 0.00 53 1015.4
20260502040059 57 0 0.0 4.0 0.00 0.00 0.00 54 1015.4
20260502035558 58 311 1.0 4.0 0.00 0.00 0.00 54 1015.6
20260502035058 58 322 1.0 7.0 0.00 0.00 0.00 55 1015.3
20260502034600 58 0 1.0 7.0 0.00 0.00 0.00 55 1015.2
20260502034058 58 0 0.0 3.0 0.00 0.00 0.00 55 1015.3
20260502033557 58 317 0.0 3.0 0.00 0.00 0.00 54 1015.1
20260502033056 58 312 0.0 3.0 0.00 0.00 0.00 55 1015.4
20260502032557 58 30 0.0 3.0 0.00 0.00 0.00 54 1015.6
20260502032057 59 330 0.0 6.0 0.00 0.00 0.00 54 1015.5
20260502031559 59 0 0.0 6.0 0.00 0.00 0.00 55 1015.6
20260502031057 59 5 0.0 6.0 0.00 0.00 0.00 54 1015.8
20260502030557 59 0 0.0 3.0 0.00 0.00 0.00 55 1015.9
20260502030056 59 0 0.0 5.0 0.00 0.00 0.00 55 1015.8
20260502025557 59 325 1.0 5.0 0.00 0.00 0.00 55 1015.6
20260502025056 59 5 1.0 8.0 0.00 0.00 0.00 56 1015.7
20260502024600 60 350 1.0 8.0 0.00 0.00 0.00 56 1015.7
20260502024100 60 0 1.0 7.0 0.00 0.00 0.00 57 1015.6
20260502023600 60 327 1.0 7.0 0.00 0.00 0.00 60 1015.6
20260502023102 60 312 3.0 7.0 0.00 0.00 0.00 61 1015.4
20260502022557 60 297 0.0 4.0 0.00 0.00 0.00 65 1015.4
20260502022058 60 0 1.0 4.0 0.00 0.00 0.00 66 1015.3
20260502021557 60 61 1.0 4.0 0.00 0.00 0.00 66 1015.3
20260502021057 60 0 1.0 4.0 0.00 0.00 0.00 67 1015.1
20260502020559 61 0 0.0 4.0 0.00 0.00 0.00 67 1015.0
20260502020100 61 309 1.0 4.0 0.00 0.00 0.00 68 1014.9
20260502015559 61 267 0.0 4.0 0.00 0.00 0.00 68 1014.8
20260502015057 61 313 0.0 4.0 0.00 0.00 0.00 68 1014.8
20260502014601 61 316 1.0 3.0 0.00 0.00 0.00 68 1014.8
20260502014057 61 0 0.0 3.0 0.00 0.00 0.00 67 1014.9
20260502013557 61 317 0.0 3.0 0.00 0.00 0.00 67 1014.8
20260502013108 61 91 0.0 3.0 0.00 0.00 0.00 68 1014.8
20260502012557 61 0 0.0 4.0 0.00 0.00 0.00 69 1014.9
20260502012057 60 0 0.0 4.0 0.00 0.00 0.00 71 1014.9
20260502011557 59 0 0.0 2.0 0.00 0.00 0.00 75 1014.9
20260502011058 59 0 0.0 2.0 0.00 0.00 0.00 78 1014.9
20260502010558 59 0 0.0 0.0 0.00 0.00 0.00 78 1014.8
20260502010101 59 0 0.0 0.0 0.00 0.00 0.00 79 1014.6
20260502005557 59 0 0.0 1.0 0.00 0.00 0.00 77 1014.6
20260502005057 59 0 0.0 1.0 0.00 0.00 0.00 77 1014.5
20260502004605 59 0 0.0 1.0 0.00 0.00 0.00 78 1014.5
20260502004059 59 0 0.0 0.0 0.00 0.00 0.00 81 1014.5
20260502003601 59 0 0.0 0.0 0.00 0.00 0.00 81 1014.4
20260502003055 59 0 0.0 0.0 0.00 0.00 0.00 80 1014.2
20260502002558 59 0 0.0 0.0 0.00 0.00 0.00 78 1014.0
20260502002058 60 0 0.0 0.0 0.00 0.00 0.00 77 1013.8
20260502001556 60 0 0.0 0.0 0.00 0.00 0.00 76 1013.8
20260502001101 60 0 0.0 1.0 0.00 0.00 0.00 79 1013.8
20260502000557 61 0 0.0 1.0 0.00 0.00 0.00 77 1013.9
20260502000108 61 0 0.0 1.0 0.00 0.00 0.00 72 1013.8
20260501235558 61 0 0.0 0.0 0.00 0.00 0.00 77 1013.8
20260501235057 61 0 0.0 2.0 0.00 0.00 0.00 75 1013.7
20260501234606 61 0 0.0 2.0 0.00 0.00 0.00 75 1013.8
20260501234057 62 0 0.0 2.0 0.00 0.00 0.00 71 1013.8
20260501233556 62 0 0.0 2.0 0.00 0.00 0.00 70 1013.7
20260501233059 62 311 0.0 2.0 0.00 0.00 0.00 67 1013.5
20260501232556 63 0 0.0 2.0 0.00 0.00 0.00 67 1013.4
20260501232056 63 312 0.0 1.0 0.00 0.00 0.00 60 1013.3
20260501231557 63 0 0.0 1.0 0.00 0.00 0.00 63 1013.7
20260501231057 63 314 0.0 1.0 0.00 0.00 0.00 62 1013.5
20260501230557 63 0 0.0 1.0 0.00 0.00 0.00 61 1013.5
20260501230056 63 0 0.0 2.0 0.00 0.00 0.00 62 1013.6
20260501225557 64 0 0.0 2.0 0.00 0.00 0.00 61 1013.6
20260501225057 65 0 0.0 2.0 0.00 0.00 0.00 57 1013.6
20260501224555 64 0 1.0 2.0 0.00 0.00 0.00 57 1013.7
20260501224057 65 0 0.0 3.0 0.00 0.00 0.00 59 1013.7
20260501223557 65 0 0.0 3.0 0.00 0.00 0.00 56 1013.4
20260501223102 65 0 0.0 3.0 0.00 0.00 0.00 56 1013.4
20260501222557 65 0 0.0 2.0 0.00 0.00 0.00 56 1013.4
20260501222057 65 0 0.0 2.0 0.00 0.00 0.00 56 1013.1
20260501221602 65 333 0.0 2.0 0.00 0.00 0.00 53 1012.9
20260501221057 66 0 0.0 2.0 0.00 0.00 0.00 54 1012.8
20260501220557 66 59 0.0 4.0 0.00 0.00 0.00 54 1012.8
20260501215559 66 0 1.0 5.0 0.00 0.00 0.00 52 1013.0
20260501215058 66 0 0.0 7.0 0.00 0.00 0.00 52 1013.1
20260501214558 66 24 2.0 7.0 0.00 0.00 0.00 51 1013.0
20260501214056 66 342 1.0 4.0 0.00 0.00 0.00 51 1013.0
20260501213559 66 0 0.0 4.0 0.00 0.00 0.00 51 1012.9
20260501213102 66 298 1.0 5.0 0.00 0.00 0.00 52 1013.0
20260501212557 66 67 1.0 5.0 0.00 0.00 0.00 53 1013.1
20260501212055 66 294 1.0 4.0 0.00 0.00 0.00 51 1013.3